[[{"header":{"parameterUnit":"m.s-1","parameterCategory":1,"la1":30.2991,"la2":30.254,"lo1":-89.0895,"lo2":-89.0444,"dy":0.0017,"dx":0.0017,"nx":28,"ny":28,"refTime":"2023-10-02T09:00:00:Z","depth":0,"parameterNumber":2,"parameterNumberName":"U-component_of_WINDS"},"data":[0,0,0,0,0,0,0,0,0,0,0,0,0,0,0,0,0,0,0,0,0,0,0,0,0,0,0,0,0,0,0,0,0,0,0,0,0,0,0,0,0,0,0,0,0,0,0,0,0,0,0,0,0,0,0,0,0,0,-5.4503,-5.4503,0,-5.449,-5.449,-5.4489,-5.436,-5.4357,-5.4354,-5.4351,-5.4338,-5.434,-5.4343,0,0,0,0,0,0,0,0,0,0,0,0,0,-5.4419,-5.4421,-5.4503,-5.4503,-5.4503,-5.449,-5.449,-5.4489,-5.4361,-5.4357,-5.4353,-5.4349,-5.4337,-5.434,-5.4343,0,0,0,0,0,0,0,0,0,0,0,0,0,-5.4436,-5.4422,-5.4503,-5.4437,-5.4431,-5.449,-5.449,-5.4489,-5.4362,-5.4357,-5.4352,-5.4348,-5.4336,-5.434,-5.4344,-5.4465,0,0,-5.4356,-5.4357,0,0,0,0,0,0,0,0,-5.4435,-5.4439,-5.4447,-5.4442,-5.4435,-5.4422,-5.4455,-5.4481,-5.4363,-5.4388,-5.4351,-5.4345,-5.437,-5.4371,-5.4379,-5.4464,-5.4464,-5.4356,-5.4358,-5.436,-5.4361,0,0,0,0,0,0,0,-5.4434,-5.4439,-5.4498,-5.4447,-5.444,-5.4409,-5.4406,-5.4459,-5.4406,-5.4386,-5.4376,-5.4376,-5.4365,-5.4375,-5.4377,-5.4463,-5.4356,-5.4359,-5.4362,-5.4363,-5.4648,-5.4653,0,0,0,0,0,0,-5.4442,-5.4439,-5.4498,-5.4497,-5.4423,-5.4414,-5.4411,-5.4431,-5.4405,-5.4397,-5.438,-5.437,-5.4371,-5.4373,-5.4376,-5.4516,-5.436,-5.4364,-5.4366,-5.4643,-5.465,-5.4655,0,0,0,0,0,0,-5.4441,-5.4449,-5.4499,-5.4466,-5.447,-5.4421,-5.4444,-5.4433,-5.4442,-5.4401,-5.4391,-5.44,-5.4367,-5.4371,-5.4444,-5.4514,-5.4366,-5.4369,-5.4637,-5.4645,-5.4652,-5.4797,0,0,0,0,0,0,-5.4439,-5.4449,-5.4494,-5.4468,-5.4472,-5.4566,-5.4449,-5.4436,-5.445,-5.4436,-5.4417,-5.4409,-5.4363,-5.4439,-5.4448,-5.4516,-5.4372,-5.4631,-5.4641,-5.465,-5.4785,-5.4808,-5.4828,0,0,0,0,0,-5.4436,-5.4535,-5.4497,-5.4504,-5.4527,-5.457,-5.4573,-5.4518,-5.4456,-5.4501,-5.4475,-5.441,-5.4506,-5.4447,-5.4456,-5.4527,-5.4626,-5.4638,-5.4649,-5.4776,-5.4804,-5.4828,0,0,0,0,0,0,-5.457,-5.453,-5.4487,-5.458,-5.458,-5.4548,-5.4603,-5.455,-5.4567,-5.4553,-5.4486,-5.4482,-5.4566,-5.4554,-5.449,-5.4644,-5.4554,-5.4569,-5.4648,-5.4674,-5.4695,-5.4695,-5.4376,0,0,0,0,0,-5.461,-5.4648,-5.4612,-5.4697,-5.47,-5.4652,-5.4669,-5.4627,-5.4624,-5.4623,-5.4602,-5.4602,-5.4632,-5.4653,-5.4678,-5.4784,-5.4778,-5.4838,-5.486,-5.4877,-5.4889,-5.4945,-5.4971,-5.4694,-5.4693,-5.4693,0,0,-5.4693,-5.4677,-5.4705,-5.4724,-5.4718,-5.476,-5.4652,-5.4701,-5.4731,-5.463,-5.4697,-5.4683,-5.4678,-5.4769,-5.4807,-5.4762,-5.4965,-5.4892,-5.4907,-5.4909,-5.496,-5.4986,-5.5009,-5.4701,-5.47,-5.4699,0,0,-5.4865,-5.4857,-5.4927,-5.4925,-5.4919,-5.4887,-5.4905,-5.4882,-5.4868,-5.4935,-5.4861,-5.4897,-5.495,-5.4949,-5.4956,-5.5133,-5.5073,-5.5143,-5.5254,-5.5309,-5.5331,-5.535,-5.5411,-5.5435,-5.5156,-5.5157,-5.5157,0,-5.4969,-5.5028,-5.497,-5.5024,-5.5034,-5.4947,-5.5018,-5.5018,-5.5021,-5.5031,-5.498,-5.5046,-5.5036,-5.5125,-5.5169,-5.5178,-5.5195,-5.5143,-5.5332,-5.5351,-5.5368,-5.5426,-5.5449,-5.5165,-5.5164,-5.5163,-5.5162,0,-5.5156,-5.5199,-5.5257,-5.5261,-5.5279,-5.5342,-5.5293,-5.5319,-5.5277,-5.5251,-5.5321,-5.5308,-5.5329,-5.5348,-5.5307,-5.5432,-5.5403,-5.5344,-5.5252,-5.5403,-5.5457,-5.5479,-5.5177,-5.5174,-5.5171,-5.5169,0,0,-5.5408,-5.5382,-5.5404,-5.5406,-5.5394,-5.5426,-5.5486,-5.5507,-5.5529,-5.5536,-5.5583,-5.5632,-5.5577,-5.5585,-5.5544,-5.5593,-5.5733,-5.5527,-5.5526,-5.5565,-5.5869,-5.5912,-5.5939,-5.5695,-5.57,-5.5703,-5.5869,0,-5.5572,-5.567,-5.5621,-5.5726,-5.5765,-5.5684,-5.5736,-5.5735,-5.5714,-5.5744,-5.572,-5.5755,-5.5681,-5.5685,-5.573,-5.5707,-5.5793,-5.5694,-5.5738,-5.5741,-5.5739,-5.5967,-5.6012,-5.617,-5.589,-5.5893,-5.5896,0,-5.5776,-5.5791,-5.59,-5.5882,-5.5897,-5.5944,-5.596,-5.599,-5.5988,-5.5969,-5.5981,-5.5929,-5.5987,-5.5899,-5.5977,-5.5912,-5.5927,-5.5919,-5.5924,-5.5923,-5.5825,-5.5971,-5.6218,-5.6241,-5.5928,-5.5926,-5.5923,0,-5.5946,-5.5995,-5.6065,-5.607,-5.6052,-5.6087,-5.6081,-5.6075,-5.6091,-5.6106,-5.6116,-5.6138,-5.615,-5.6168,-5.6124,-5.6065,-5.6209,-5.6118,-5.6194,-5.6196,-5.6225,-5.6224,-5.6477,-5.6241,-5.6241,-5.624,-5.624,0,-5.6133,-5.6202,-5.6142,-5.6185,-5.6261,-5.6206,-5.6282,-5.6268,-5.6264,-5.6303,-5.6237,-5.6276,-5.6217,-5.625,-5.6217,-5.6287,-5.6293,-5.628,-5.6269,-5.6284,-5.6285,-5.6291,-5.6278,-5.6246,-5.6245,-5.6244,-5.6243,0,-5.6334,-5.6297,-5.6369,-5.6347,-5.6344,-5.64,-5.6381,-5.6421,-5.6397,-5.6448,-5.6457,-5.6419,-5.6455,-5.6415,-5.6448,-5.6426,-5.652,-5.6495,-5.652,-5.6512,-5.659,-5.6583,-5.6854,-5.6886,-5.6632,-5.6634,-5.6636,0,-5.6454,-5.6506,-5.649,-5.6512,-5.6511,-5.6547,-5.6564,-5.6513,-5.6533,-5.6537,-5.6576,-5.6607,-5.6628,-5.6691,-5.6666,-5.6692,-5.6665,-5.6759,-5.6668,-5.6682,-5.6664,-5.6661,-5.6665,-5.6776,-5.6779,-5.6782,-5.6784,0,-5.6671,-5.6651,-5.6677,-5.6699,-5.6721,-5.6735,-5.6744,-5.6766,-5.6713,-5.674,-5.6776,-5.6794,-5.6828,-5.686,-5.6879,-5.6873,-5.682,-5.6813,-5.6832,-5.6845,-5.6857,-5.685,-5.6567,-5.6806,-5.6804,-5.6802,-5.6801,-5.68,-5.6834,-5.6876,-5.6872,-5.6904,-5.6906,-5.6917,-5.6953,-5.6935,-5.6964,-5.6988,-5.6957,-5.7002,-5.7001,-5.7021,-5.7023,-5.7058,-5.7018,-5.7045,-5.7052,-5.7059,-5.707,-5.6855,-5.7062,-5.7061,-5.706,-5.706,-5.7059,0,-5.7045,-5.7039,-5.707,-5.7085,-5.7111,-5.7061,-5.7069,-5.7094,-5.7135,-5.7139,-5.7162,-5.7205,-5.7236,-5.7216,-5.7242,-5.7274,-5.7251,-5.7283,-5.7278,-5.7278,-5.7105,-5.7085,-5.7301,-5.7301,-5.7301,-5.7301,-5.7301,-5.7301,-5.7157,-5.7226,-5.7206,-5.7276,-5.7269,-5.7313,-5.7322,-5.7332,-5.7335,-5.7386,-5.7411,-5.7398,-5.7393,-5.7419,-5.7445,-5.7439,-5.7451,-5.7491,-5.7476,-5.7314,-5.729,-5.7267,-5.7248,-5.7495,-5.7495,-5.7645,-5.7647,-5.7648]},{"header":{"parameterUnit":"m.s-1","parameterCategory":1,"la1":30.2991,"la2":30.254,"lo1":-89.0895,"lo2":-89.0444,"dy":0.0017,"dx":0.0017,"nx":28,"ny":28,"refTime":"2023-10-02T09:00:00:Z","depth":0,"parameterNumber":3,"parameterNumberName":"V-component_of_WINDS"},"data":[0,0,0,0,0,0,0,0,0,0,0,0,0,0,0,0,0,0,0,0,0,0,0,0,0,0,0,0,0,0,0,0,0,0,0,0,0,0,0,0,0,0,0,0,0,0,0,0,0,0,0,0,0,0,0,0,0,0,1.9054,1.9054,0,1.9041,1.9041,1.9041,1.9082,1.9083,1.9084,1.9086,1.9064,1.9062,1.9061,0,0,0,0,0,0,0,0,0,0,0,0,0,1.911,1.9109,1.9054,1.9054,1.9054,1.9041,1.9041,1.904,1.9082,1.9083,1.9085,1.9086,1.9065,1.9063,1.9061,0,0,0,0,0,0,0,0,0,0,0,0,0,1.909,1.9109,1.9054,1.9073,1.9075,1.9041,1.9041,1.904,1.9081,1.9083,1.9085,1.9087,1.9065,1.9063,1.906,1.9005,0,0,1.9052,1.9051,0,0,0,0,0,0,0,0,1.9091,1.9088,1.9071,1.9072,1.9074,1.9065,1.9053,1.9028,1.9081,1.9078,1.9086,1.9088,1.9062,1.906,1.9053,1.9004,1.9004,1.9052,1.905,1.9049,1.9048,0,0,0,0,0,0,0,1.9092,1.9089,1.9049,1.907,1.9072,1.908,1.908,1.9048,1.9059,1.9079,1.9082,1.908,1.9064,1.9056,1.9053,1.9003,1.9052,1.905,1.9048,1.9047,1.8909,1.8907,0,0,0,0,0,0,1.9092,1.909,1.9049,1.9048,1.9088,1.9078,1.9077,1.9066,1.906,1.9061,1.9078,1.9082,1.9059,1.9056,1.9052,1.8988,1.9049,1.9047,1.9045,1.8911,1.8909,1.8907,0,0,0,0,0,0,1.9093,1.9088,1.905,1.907,1.9066,1.9075,1.9062,1.9064,1.9057,1.906,1.9061,1.9069,1.9061,1.9056,1.9017,1.8987,1.9046,1.9043,1.8914,1.8911,1.8908,1.8857,0,0,0,0,0,0,1.9095,1.9089,1.9069,1.9069,1.9065,1.9016,1.906,1.9063,1.9053,1.9057,1.9051,1.9052,1.9062,1.9021,1.9015,1.8985,1.9041,1.8916,1.8912,1.8909,1.8862,1.8853,1.8846,0,0,0,0,0,1.9097,1.9053,1.9068,1.9062,1.904,1.9015,1.9012,1.9026,1.905,1.903,1.9032,1.9052,1.8993,1.9017,1.901,1.8979,1.8918,1.8913,1.8909,1.8865,1.8855,1.8846,0,0,0,0,0,0,1.9046,1.9054,1.9069,1.9026,1.902,1.9022,1.8996,1.9014,1.8999,1.9004,1.9021,1.9019,1.8977,1.8974,1.9001,1.8926,1.8959,1.8953,1.8928,1.8918,1.891,1.891,1.9039,0,0,0,0,0,1.903,1.9011,1.9018,1.8978,1.8975,1.8986,1.8975,1.8988,1.8981,1.8978,1.8977,1.8968,1.8948,1.8933,1.8914,1.8863,1.8861,1.8838,1.883,1.8823,1.8817,1.8789,1.8778,1.8891,1.8891,1.8891,0,0,1.8996,1.8998,1.8984,1.8968,1.8965,1.8943,1.8983,1.8958,1.8941,1.8973,1.8937,1.8937,1.8927,1.8882,1.8862,1.8879,1.8786,1.8817,1.8812,1.8809,1.8783,1.8772,1.8763,1.8888,1.8889,1.8889,0,0,1.8923,1.8923,1.889,1.8887,1.8883,1.8891,1.8884,1.8884,1.8885,1.885,1.8874,1.8854,1.8818,1.8811,1.8802,1.8729,1.8746,1.8723,1.8679,1.8652,1.8643,1.8635,1.8607,1.8598,1.8717,1.8717,1.8716,0,1.888,1.8849,1.887,1.8844,1.8836,1.8868,1.8834,1.8829,1.8817,1.881,1.883,1.8787,1.8783,1.8737,1.8719,1.8712,1.8702,1.8722,1.8643,1.8635,1.8628,1.8602,1.8592,1.8714,1.8714,1.8714,1.8715,0,1.8797,1.8775,1.8749,1.8741,1.873,1.8699,1.8714,1.8701,1.8715,1.872,1.8684,1.8681,1.8663,1.8653,1.8665,1.8608,1.8619,1.8641,1.8674,1.8614,1.859,1.858,1.8709,1.871,1.8711,1.8712,0,0,1.8687,1.8694,1.8683,1.868,1.8679,1.8662,1.8633,1.8618,1.8605,1.8597,1.8572,1.8543,1.8564,1.8554,1.8566,1.8543,1.8484,1.8568,1.8568,1.8551,1.842,1.8402,1.839,1.8497,1.8495,1.8494,1.842,0,1.8614,1.8567,1.8586,1.8536,1.8516,1.8548,1.8523,1.8519,1.8524,1.8506,1.8511,1.849,1.852,1.8514,1.8493,1.8496,1.8458,1.8502,1.8471,1.847,1.847,1.8378,1.8358,1.8289,1.8411,1.8409,1.8408,0,1.8521,1.8513,1.8462,1.8466,1.8458,1.8435,1.8423,1.8407,1.8403,1.8408,1.8399,1.8417,1.8388,1.8424,1.8382,1.8412,1.8401,1.8401,1.8399,1.8394,1.8434,1.8369,1.8267,1.8256,1.8394,1.8395,1.8396,0,1.8445,1.842,1.8387,1.8383,1.8388,1.8371,1.8371,1.837,1.836,1.8349,1.8342,1.8328,1.8318,1.8306,1.8319,1.8344,1.8275,1.8312,1.8277,1.8276,1.8258,1.8258,1.8151,1.8255,1.8255,1.8255,1.8255,0,1.8359,1.8326,1.8353,1.8332,1.8296,1.8319,1.8282,1.8286,1.8284,1.8263,1.829,1.8269,1.8289,1.8269,1.8279,1.8243,1.8239,1.8241,1.8244,1.8237,1.8237,1.8228,1.8233,1.8252,1.8253,1.8254,1.8254,0,1.8266,1.8283,1.8248,1.8257,1.8258,1.8231,1.8237,1.8217,1.8226,1.82,1.8195,1.8207,1.8186,1.8199,1.8177,1.8183,1.8136,1.8146,1.8138,1.8139,1.8103,1.8105,1.7984,1.7969,1.8084,1.8083,1.8082,0,1.8209,1.8185,1.8192,1.8182,1.8182,1.8164,1.8155,1.8176,1.8165,1.816,1.8141,1.8123,1.8109,1.8074,1.808,1.8063,1.8072,1.8031,1.8069,1.8064,1.8069,1.807,1.8067,1.8022,1.8021,1.8019,1.8019,0,1.8106,1.8117,1.8104,1.8094,1.8084,1.8076,1.8071,1.806,1.8082,1.8068,1.8049,1.8039,1.8018,1.7999,1.7986,1.7984,1.8004,1.8007,1.7998,1.799,1.7985,1.7986,1.8114,1.8009,1.801,1.8011,1.8011,1.8011,1.8029,1.8009,1.8012,1.7996,1.7996,1.7991,1.7973,1.7981,1.7966,1.7952,1.7966,1.7942,1.7939,1.7924,1.792,1.7901,1.7917,1.7904,1.79,1.7896,1.789,1.7991,1.7898,1.7899,1.7899,1.7899,1.79,0,1.7926,1.793,1.7916,1.791,1.7898,1.7922,1.7918,1.7905,1.7885,1.7882,1.787,1.7847,1.783,1.7836,1.782,1.7803,1.7812,1.7798,1.7798,1.7797,1.7877,1.7886,1.7791,1.7791,1.7791,1.7791,1.7791,1.7791,1.7871,1.7839,1.785,1.7817,1.7821,1.78,1.7796,1.7791,1.7789,1.7764,1.7751,1.7756,1.7756,1.7741,1.7726,1.7728,1.772,1.7702,1.7707,1.7781,1.7791,1.7801,1.781,1.7701,1.7701,1.7629,1.7628,1.7628]}]]